| time (UTC) | temp F | wind direction | speed MPH | gust MPH | rain 1hr in | rain 24hr in | rain mn in | humidity % | barometer mb |
| 20260902095006 | 66 | 202 | 3.0 | 16.0 | 0.00 | 0.00 | 0.00 | 80 | 1020.9 |
| 20260902094006 | 66 | 197 | 7.0 | 14.0 | 0.00 | 0.00 | 0.00 | 79 | 1020.8 |
| 20260902092006 | 67 | 207 | 5.0 | 12.0 | 0.00 | 0.00 | 0.00 | 79 | 1020.9 |
| 20260902091006 | 66 | 203 | 2.0 | 12.0 | 0.00 | 0.00 | 0.00 | 81 | 1020.8 |
| 20260902090006 | 66 | 226 | 5.0 | 12.0 | 0.00 | 0.00 | 0.00 | 81 | 1020.7 |
| 20260902085006 | 66 | 206 | 4.0 | 14.0 | 0.00 | 0.00 | 0.00 | 82 | 1020.8 |
| 20260902084006 | 66 | 173 | 4.0 | 12.0 | 0.00 | 0.00 | 0.00 | 82 | 1020.7 |
| 20260902083006 | 66 | 186 | 2.0 | 9.0 | 0.00 | 0.00 | 0.00 | 83 | 1020.6 |
| 20260902080006 | 66 | 221 | 3.0 | 12.0 | 0.00 | 0.00 | 0.00 | 83 | 1020.5 |
| 20260902075007 | 66 | 139 | 0.0 | 0.0 | 0.00 | 0.00 | 0.00 | 84 | 1020.3 |
| 20260902074006 | 65 | 210 | 0.0 | 0.0 | 0.00 | 0.00 | 0.00 | 84 | 1020.3 |
| 20260902073006 | 65 | 194 | 0.0 | 0.0 | 0.00 | 0.00 | 0.00 | 85 | 1020.1 |
| 20260902072006 | 64 | 236 | 0.0 | 0.0 | 0.00 | 0.00 | 0.00 | 86 | 1020.1 |
| 20260902071006 | 64 | 191 | 0.0 | 0.0 | 0.00 | 0.00 | 0.00 | 86 | 1020.2 |
| 20260902065006 | 64 | 200 | 0.0 | 0.0 | 0.00 | 0.00 | 0.00 | 86 | 1020.0 |
| 20260902064006 | 64 | 104 | 0.0 | 0.0 | 0.00 | 0.00 | 0.00 | 86 | 1020.1 |
| 20260902063006 | 63 | 202 | 0.0 | 0.0 | 0.00 | 0.00 | 0.00 | 87 | 1020.1 |
| 20260902062006 | 63 | 200 | 0.0 | 0.0 | 0.00 | 0.00 | 0.00 | 87 | 1020.0 |
| 20260902060006 | 62 | 206 | 0.0 | 0.0 | 0.00 | 0.00 | 0.00 | 88 | 1020.1 |
| 20260902055005 | 62 | 170 | 0.0 | 0.0 | 0.00 | 0.00 | 0.00 | 88 | 1020.0 |
| 20260902054007 | 62 | 243 | 0.0 | 0.0 | 0.00 | 0.00 | 0.00 | 88 | 1019.9 |
| 20260902053006 | 61 | 217 | 0.0 | 0.0 | 0.00 | 0.00 | 0.00 | 88 | 1019.9 |
| 20260902052006 | 61 | 215 | 0.0 | 0.0 | 0.00 | 0.00 | 0.00 | 87 | 1020.0 |
| 20260902051006 | 61 | 211 | 0.0 | 0.0 | 0.00 | 0.00 | 0.00 | 87 | 1020.0 |
| 20260902050008 | 62 | 217 | 0.0 | 0.0 | 0.00 | 0.00 | 0.00 | 88 | 1020.1 |
| 20260902045007 | 62 | 210 | 0.0 | 0.0 | 0.00 | 0.00 | 0.00 | 88 | 1020.1 |
| 20260902044005 | 62 | 243 | 0.0 | 0.0 | 0.00 | 0.00 | 0.00 | 88 | 1020.0 |
| 20260902043005 | 62 | 219 | 0.0 | 0.0 | 0.00 | 0.00 | 0.00 | 88 | 1019.9 |
| 20260902041006 | 62 | 221 | 0.0 | 0.0 | 0.00 | 0.00 | 0.00 | 88 | 1020.1 |
| 20260902040006 | 62 | 206 | 0.0 | 0.0 | 0.00 | 0.00 | 0.00 | 89 | 1020.1 |
| 20260902035006 | 62 | 216 | 0.0 | 0.0 | 0.00 | 0.00 | 0.00 | 89 | 1020.2 |
| 20260902034006 | 62 | 213 | 0.0 | 0.0 | 0.00 | 0.00 | 0.00 | 89 | 1020.2 |
| 20260902033005 | 62 | 198 | 0.0 | 0.0 | 0.00 | 0.00 | 0.00 | 89 | 1020.2 |
| 20260902031005 | 62 | 213 | 0.0 | 0.0 | 0.00 | 0.00 | 0.00 | 89 | 1020.0 |
| 20260902030005 | 62 | 238 | 0.0 | 0.0 | 0.00 | 0.00 | 0.00 | 89 | 1020.4 |
| 20260902025005 | 62 | 218 | 0.0 | 0.0 | 0.00 | 0.00 | 0.00 | 90 | 1020.6 |
| 20260902024005 | 61 | 197 | 0.0 | 0.0 | 0.00 | 0.00 | 0.00 | 90 | 1020.6 |
| 20260902023005 | 61 | 275 | 0.0 | 0.0 | 0.00 | 0.00 | 0.00 | 90 | 1020.6 |
| 20260902022007 | 61 | 275 | 0.0 | 0.0 | 0.00 | 0.00 | 0.00 | 90 | 1020.5 |
| 20260902021005 | 61 | 275 | 0.0 | 0.0 | 0.00 | 0.00 | 0.00 | 90 | 1020.6 |
| 20260902020005 | 61 | 254 | 0.0 | 0.0 | 0.00 | 0.00 | 0.00 | 90 | 1020.6 |
| 20260902015005 | 61 | 304 | 0.0 | 0.0 | 0.00 | 0.00 | 0.00 | 90 | 1020.7 |
| 20260902014005 | 61 | 286 | 0.0 | 0.0 | 0.00 | 0.00 | 0.00 | 90 | 1020.8 |
| 20260902013005 | 61 | 286 | 0.0 | 0.0 | 0.00 | 0.00 | 0.00 | 90 | 1020.7 |
| 20260902012005 | 61 | 286 | 0.0 | 0.0 | 0.00 | 0.00 | 0.00 | 90 | 1020.9 |
| 20260902011005 | 61 | 287 | 0.0 | 0.0 | 0.00 | 0.00 | 0.00 | 90 | 1020.9 |
| 20260902010005 | 61 | 289 | 0.0 | 0.0 | 0.00 | 0.00 | 0.00 | 90 | 1020.9 |
| 20260902005005 | 61 | 289 | 0.0 | 0.0 | 0.00 | 0.00 | 0.00 | 90 | 1021.2 |
| 20260902004005 | 61 | 288 | 0.0 | 0.0 | 0.00 | 0.00 | 0.00 | 90 | 1021.1 |
| 20260902003005 | 61 | 298 | 0.0 | 0.0 | 0.00 | 0.00 | 0.00 | 90 | 1021.2 |
| 20260902002005 | 61 | 289 | 0.0 | 0.0 | 0.00 | 0.00 | 0.00 | 90 | 1021.1 |
| 20260902001006 | 61 | 296 | 0.0 | 0.0 | 0.00 | 0.00 | 0.00 | 90 | 1021.0 |
| 20260902000005 | 61 | 296 | 0.0 | 0.0 | 0.00 | 0.00 | 0.00 | 90 | 1020.9 |
| 20260901235005 | 61 | 294 | 0.0 | 0.0 | 0.00 | 0.00 | 0.00 | 90 | 1021.0 |
| 20260901234005 | 61 | 295 | 0.0 | 0.0 | 0.00 | 0.00 | 0.00 | 90 | 1021.0 |
| 20260901233005 | 61 | 294 | 0.0 | 0.0 | 0.00 | 0.00 | 0.00 | 90 | 1021.0 |
| 20260901232005 | 61 | 297 | 0.0 | 0.0 | 0.00 | 0.00 | 0.00 | 90 | 1021.1 |
| 20260901231005 | 61 | 298 | 0.0 | 0.0 | 0.00 | 0.00 | 0.00 | 89 | 1021.0 |
| 20260901230005 | 61 | 291 | 0.0 | 0.0 | 0.00 | 0.00 | 0.00 | 89 | 1021.1 |
| 20260901225005 | 61 | 291 | 0.0 | 0.0 | 0.00 | 0.00 | 0.00 | 88 | 1021.0 |
| 20260901223006 | 61 | 290 | 0.0 | 0.0 | 0.00 | 0.00 | 0.00 | 89 | 1021.1 |
| 20260901222005 | 61 | 291 | 0.0 | 0.0 | 0.00 | 0.00 | 0.00 | 88 | 1021.2 |
| 20260901221005 | 61 | 291 | 0.0 | 0.0 | 0.00 | 0.00 | 0.00 | 88 | 1021.2 |
| 20260901220005 | 61 | 292 | 0.0 | 0.0 | 0.00 | 0.00 | 0.00 | 88 | 1021.2 |
| 20260901215005 | 62 | 289 | 0.0 | 3.0 | 0.00 | 0.00 | 0.00 | 88 | 1021.2 |
| 20260901214005 | 62 | 295 | 2.0 | 6.0 | 0.00 | 0.00 | 0.00 | 88 | 1021.4 |
| 20260901213005 | 62 | 292 | 2.0 | 3.0 | 0.00 | 0.00 | 0.00 | 88 | 1021.4 |
| 20260901212005 | 62 | 289 | 1.0 | 3.0 | 0.00 | 0.00 | 0.00 | 87 | 1021.2 |
| 20260901211005 | 62 | 291 | 1.0 | 3.0 | 0.00 | 0.00 | 0.00 | 87 | 1021.3 |
| 20260901210005 | 62 | 296 | 2.0 | 5.0 | 0.00 | 0.00 | 0.00 | 87 | 1021.3 |
| 20260901205005 | 62 | 299 | 2.0 | 3.0 | 0.00 | 0.00 | 0.00 | 87 | 1021.4 |
| 20260901204005 | 62 | 299 | 2.0 | 6.0 | 0.00 | 0.00 | 0.00 | 86 | 1021.3 |
| 20260901203005 | 62 | 280 | 2.0 | 6.0 | 0.00 | 0.00 | 0.00 | 86 | 1021.2 |
| 20260901202004 | 62 | 295 | 3.0 | 7.0 | 0.00 | 0.00 | 0.00 | 86 | 1021.3 |
| 20260901201005 | 62 | 292 | 2.0 | 7.0 | 0.00 | 0.00 | 0.00 | 85 | 1021.2 |
| 20260901200005 | 62 | 284 | 2.0 | 6.0 | 0.00 | 0.00 | 0.00 | 85 | 1021.1 |
| 20260901195004 | 62 | 340 | 2.0 | 6.0 | 0.00 | 0.00 | 0.00 | 84 | 1021.1 |
| 20260901194004 | 62 | 326 | 2.0 | 5.0 | 0.00 | 0.00 | 0.00 | 83 | 1021.0 |
| 20260901193005 | 62 | 317 | 2.0 | 8.0 | 0.00 | 0.00 | 0.00 | 83 | 1021.1 |
| 20260901192004 | 62 | 316 | 2.0 | 8.0 | 0.00 | 0.00 | 0.00 | 82 | 1021.0 |
| 20260901190004 | 63 | 305 | 2.0 | 7.0 | 0.00 | 0.00 | 0.00 | 81 | 1021.0 |
| 20260901185004 | 63 | 331 | 3.0 | 8.0 | 0.00 | 0.00 | 0.00 | 80 | 1021.1 |
| 20260901184005 | 63 | 303 | 3.0 | 8.0 | 0.00 | 0.00 | 0.00 | 80 | 1021.1 |
| 20260901183005 | 63 | 305 | 3.0 | 8.0 | 0.00 | 0.00 | 0.00 | 79 | 1021.1 |
| 20260901182004 | 64 | 307 | 2.0 | 8.0 | 0.00 | 0.00 | 0.00 | 78 | 1021.2 |
| 20260901181007 | 64 | 269 | 2.0 | 9.0 | 0.00 | 0.00 | 0.00 | 77 | 1020.9 |
| 20260901180005 | 65 | 292 | 2.0 | 9.0 | 0.00 | 0.00 | 0.00 | 76 | 1021.0 |
| 20260901175004 | 65 | 263 | 2.0 | 9.0 | 0.00 | 0.00 | 0.00 | 76 | 1020.9 |
| 20260901174008 | 65 | 272 | 2.0 | 8.0 | 0.00 | 0.00 | 0.00 | 75 | 1021.0 |
| 20260901173004 | 66 | 222 | 3.0 | 12.0 | 0.00 | 0.00 | 0.00 | 73 | 1021.1 |
| 20260901172004 | 67 | 298 | 4.0 | 10.0 | 0.00 | 0.00 | 0.00 | 72 | 1021.1 |
| 20260901171004 | 68 | 241 | 5.0 | 12.0 | 0.00 | 0.00 | 0.00 | 70 | 1021.1 |
| 20260901170004 | 68 | 292 | 5.0 | 14.0 | 0.00 | 0.00 | 0.00 | 69 | 1021.0 |
| 20260901165006 | 68 | 228 | 3.0 | 14.0 | 0.00 | 0.00 | 0.00 | 71 | 1021.0 |
| 20260901163006 | 68 | 192 | 2.0 | 9.0 | 0.00 | 0.00 | 0.00 | 72 | 1021.1 |
| 20260901162004 | 67 | 244 | 3.0 | 10.0 | 0.00 | 0.00 | 0.00 | 74 | 1021.0 |
| 20260901155004 | 67 | 286 | 3.0 | 10.0 | 0.00 | 0.00 | 0.00 | 72 | 1021.2 |
| 20260901154004 | 68 | 310 | 5.0 | 14.0 | 0.00 | 0.00 | 0.00 | 72 | 1021.3 |
| 20260901153004 | 68 | 182 | 2.0 | 9.0 | 0.00 | 0.00 | 0.00 | 71 | 1021.2 |
| 20260901152004 | 69 | 247 | 3.0 | 10.0 | 0.00 | 0.00 | 0.00 | 68 | 1021.2 |
| 20260901151004 | 70 | 258 | 3.0 | 12.0 | 0.00 | 0.00 | 0.00 | 66 | 1021.2 |
| 20260901150004 | 69 | 299 | 3.0 | 12.0 | 0.00 | 0.00 | 0.00 | 67 | 1021.2 |
| 20260901145004 | 69 | 305 | 4.0 | 15.0 | 0.00 | 0.00 | 0.00 | 66 | 1021.3 |
| 20260901144007 | 70 | 206 | 3.0 | 12.0 | 0.00 | 0.00 | 0.00 | 67 | 1021.3 |
| 20260901143004 | 70 | 309 | 3.0 | 12.0 | 0.00 | 0.00 | 0.00 | 68 | 1021.2 |
| 20260901142004 | 70 | 225 | 3.0 | 12.0 | 0.00 | 0.00 | 0.00 | 66 | 1021.2 |
| 20260901141004 | 70 | 219 | 4.0 | 14.0 | 0.00 | 0.00 | 0.00 | 68 | 1021.3 |
| 20260901140004 | 70 | 233 | 5.0 | 15.0 | 0.00 | 0.00 | 0.00 | 64 | 1021.4 |
| 20260901135008 | 70 | 292 | 3.0 | 12.0 | 0.00 | 0.00 | 0.00 | 65 | 1021.5 |
| 20260901134004 | 71 | 288 | 6.0 | 12.0 | 0.00 | 0.00 | 0.00 | 60 | 1021.4 |
| 20260901133004 | 71 | 220 | 4.0 | 12.0 | 0.00 | 0.00 | 0.00 | 60 | 1021.4 |
| 20260901132004 | 70 | 159 | 3.0 | 12.0 | 0.00 | 0.00 | 0.00 | 62 | 1021.3 |
| 20260901131004 | 70 | 216 | 5.0 | 14.0 | 0.00 | 0.00 | 0.00 | 60 | 1021.5 |
| 20260901130004 | 71 | 227 | 3.0 | 12.0 | 0.00 | 0.00 | 0.00 | 59 | 1021.5 |
| 20260901125004 | 71 | 204 | 3.0 | 9.0 | 0.00 | 0.00 | 0.00 | 60 | 1021.4 |
| 20260901124004 | 71 | 256 | 3.0 | 12.0 | 0.00 | 0.00 | 0.00 | 59 | 1021.5 |
| 20260901123007 | 70 | 187 | 3.0 | 10.0 | 0.00 | 0.00 | 0.00 | 63 | 1021.5 |
| 20260901122007 | 70 | 236 | 3.0 | 9.0 | 0.00 | 0.00 | 0.00 | 63 | 1021.6 |
| 20260901121006 | 70 | 209 | 3.0 | 12.0 | 0.00 | 0.00 | 0.00 | 60 | 1021.5 |
| 20260901120006 | 71 | 326 | 4.0 | 10.0 | 0.00 | 0.00 | 0.00 | 64 | 1021.5 |
| 20260901115006 | 70 | 266 | 3.0 | 10.0 | 0.00 | 0.00 | 0.00 | 63 | 1021.4 |
| 20260901114006 | 70 | 251 | 3.0 | 12.0 | 0.00 | 0.00 | 0.00 | 62 | 1021.5 |
| 20260901113006 | 70 | 296 | 3.0 | 10.0 | 0.00 | 0.00 | 0.00 | 62 | 1021.5 |
| 20260901112006 | 69 | 237 | 3.0 | 9.0 | 0.00 | 0.00 | 0.00 | 61 | 1021.5 |
| 20260901111006 | 70 | 268 | 3.0 | 9.0 | 0.00 | 0.00 | 0.00 | 61 | 1021.5 |
| 20260901110006 | 69 | 203 | 3.0 | 10.0 | 0.00 | 0.00 | 0.00 | 63 | 1021.5 |
| 20260901103006 | 68 | 302 | 4.0 | 9.0 | 0.00 | 0.00 | 0.00 | 63 | 1021.8 |
| 20260901102007 | 68 | 287 | 2.0 | 8.0 | 0.00 | 0.00 | 0.00 | 63 | 1021.8 |
| 20260901100006 | 67 | 310 | 3.0 | 8.0 | 0.00 | 0.00 | 0.00 | 66 | 1021.9 |